Weather History for Rome, NY

Change the Weather History Date:

Sunday, May 26, 2013

  Actual Average Record
Temperature  
Mean Temperature 52 °F -  
Max Temperature 61 °F 70 °F 88 °F (2011)
Min Temperature 41 °F 51 °F 40 °F (1993)
Degree Days  
Heating Degree Days 12    
Growing Degree Days 2 (Base 50)    
Moisture  
Dew Point 37 °F    
Average Humidity 63    
Maximum Humidity 89    
Minimum Humidity 36    
Precipitation  
Precipitation 0.00 in - - ()
Sea Level Pressure  
Sea Level Pressure 30.09 in    
Wind  
Wind Speed 13 mph (WNW)    
Max Wind Speed 22 mph    
Max Gust Speed 33 mph    
Visibility 10 miles    
Events      
Averages and records for this station are not official NWS values.
T = Trace of Precipitation, MM = Missing Value Source: NWS Daily Summary

Daily Weather History Graph

Daily Weather History Graph

Search for Another Location

Airport:

Trip Planner

Search our weather history database for the weather conditions in past years. The results will help you decide how hot, cold, wet, or windy it might be!

Date:

Astronomy

May. 26, 2013 Rise Set
Actual Time 5:27 AM EDT 8:30 PM EDT
Civil Twilight 4:53 AM EDT 9:04 PM EDT
Nautical Twilight 4:10 AM EDT 9:47 PM EDT
Astronomical Twilight 3:18 AM EDT 10:39 PM EDT
Moon 10:14 PM EDT (5/26) 6:54 AM EDT (5/26)
Length of Visible Light 16h 10m
Length of Day
15h 02m
Waning Gibbous, 97% of the Moon is Illuminated
May 26
Waning Gibbous
May 31
Last Quarter
Jun 8
New
Jun 16
First Quarter
Jun 23
Full

Hourly Weather History & Observations

Time (EDT) Temp. Windchill Dew Point Humidity Pressure Visibility Wind Dir Wind Speed Gust Speed Precip Events Conditions
12:53 AM 45.0 °F 40.1 °F 39.9 °F 82% 30.06 in 10.0 mi NW 9.2 mph - N/A   Overcast
1:53 AM 46.0 °F 40.2 °F 39.0 °F 76% 30.04 in 10.0 mi NW 12.7 mph - N/A   Overcast
2:53 AM 46.0 °F 40.2 °F 37.9 °F 73% 30.03 in 10.0 mi NNW 12.7 mph - N/A   Mostly Cloudy
3:53 AM 46.0 °F 39.9 °F 37.0 °F 71% 30.01 in 10.0 mi NW 13.8 mph - N/A   Partly Cloudy
4:53 AM 44.1 °F 39.5 °F 37.9 °F 79% 30.02 in 10.0 mi WNW 8.1 mph - N/A   Scattered Clouds
5:53 AM 45.0 °F 40.1 °F 37.9 °F 76% 30.03 in 10.0 mi West 9.2 mph - N/A   Overcast
6:53 AM 45.0 °F 38.9 °F 39.0 °F 80% 30.04 in 10.0 mi WNW 12.7 mph - N/A   Mostly Cloudy
7:53 AM 46.0 °F 39.9 °F 39.9 °F 79% 30.06 in 10.0 mi West 13.8 mph - N/A   Overcast
8:53 AM 48.9 °F - 39.9 °F 71% 30.07 in 10.0 mi WNW 13.8 mph - N/A   Overcast
9:53 AM 50.0 °F - 37.9 °F 63% 30.08 in 10.0 mi NW 19.6 mph - N/A   Overcast
10:53 AM 50.0 °F - 37.9 °F 63% 30.09 in 10.0 mi NW 17.3 mph - 0.00 in   Overcast
11:53 AM 53.1 °F - 36.0 °F 52% 30.08 in 10.0 mi WNW 20.7 mph 26.5 mph N/A   Overcast
12:53 PM 53.1 °F - 36.0 °F 52% 30.09 in 10.0 mi NW 15.0 mph - N/A   Overcast
1:53 PM 53.1 °F - 36.0 °F 52% 30.10 in 10.0 mi WNW 16.1 mph 26.5 mph N/A   Overcast
2:53 PM 57.9 °F - 36.0 °F 44% 30.10 in 10.0 mi WNW 21.9 mph 33.4 mph N/A   Mostly Cloudy
3:53 PM 59.0 °F - 35.1 °F 41% 30.11 in 10.0 mi WNW 21.9 mph 32.2 mph N/A   Partly Cloudy
4:53 PM 61.0 °F - 34.0 °F 36% 30.12 in 10.0 mi WNW 20.7 mph 33.4 mph N/A   Clear
5:53 PM 59.0 °F - 32.0 °F 36% 30.12 in 10.0 mi West 21.9 mph 28.8 mph N/A   Clear
6:53 PM 57.9 °F - 33.1 °F 39% 30.13 in 10.0 mi NW 17.3 mph - N/A   Clear
7:53 PM 55.9 °F - 35.1 °F 45% 30.13 in 10.0 mi WNW 9.2 mph - N/A   Clear
8:53 PM 50.0 °F - 36.0 °F 59% 30.14 in 10.0 mi NW 4.6 mph - N/A   Clear
9:53 PM 46.9 °F - 37.0 °F 68% 30.16 in 10.0 mi NW 4.6 mph - N/A   Clear
10:53 PM 44.1 °F - 37.9 °F 79% 30.17 in 10.0 mi Calm Calm - N/A   Clear
11:53 PM 41.0 °F - 37.9 °F 89% 30.17 in 10.0 mi Calm Calm - N/A   Clear